Flag for Burkina Faso Weather past 2 weeks in Koudougou, Burkina Faso

Now
93 °F

Passing clouds.


Feels Like: 99 °F
Forecast: 86 / 106 °F
Wind: 14 mph from Southwest

Location: Ouagadougou Airport


UV Index: 10 (Very high)

Visibility: N/A


Pressure: 29.89 "Hg

Humidity: 47%

Dew point: 70 °F

Location of KoudougouLocation

Historic Weather in Koudougou

°F

Koudougou temperature yesterday

Maximum temperature yesterday: 104 °F (at 2:00 PM)
Minimum temperature yesterday: 84 °F (at 4:00 AM)
Average temperature yesterday: 94 °F

Past Weeks' High & Low Weather Summary

 TemperatureHumidityPressure
High108 °F (Apr 16, 3:00 PM)66% (Apr 11, 5:00 AM)29.92 "Hg (Apr 11, 5:00 AM)
Low82 °F (Apr 11, 5:00 AM)8% (Apr 17, 3:00 PM)29.68 "Hg (Apr 18, 5:00 PM)
Average94 °F38%29.81 "Hg
* Reported Apr 9 12:00 Noon — Apr 20 9:00 AM, Koudougou, Weather by CustomWeather, © 2014

Note: Actual official high and low records may vary slightly from our data, if they occured in-between our weather recording intervals... More about our weather records

Advertising

Historic Weather Conditions — Data for Previous 24 hours

 ConditionsComfort  
Time TempWeatherWind HumidityBarometerVisibility
9:00 AM
Apr 20
93 °FPassing clouds.14 mph47%29.89 "HgN/A
8:00 AM90 °FSunny.15 mph52%29.89 "Hg10 mi
7:00 AM88 °FSunny.12 mph55%29.86 "Hg10 mi
6:00 AM86 °FSunny.8 mph55%29.86 "Hg10 mi
5:00 AM88 °FClear.9 mph52%29.83 "Hg10 mi
4:00 AM88 °FClear.12 mph52%29.80 "Hg10 mi
3:00 AM88 °FClear.9 mph52%29.80 "Hg10 mi
2:00 AM90 °FClear.9 mph49%29.83 "Hg10 mi
1:00 AM90 °FClear.10 mph49%29.83 "Hg10 mi
12:00 AM91 °FClear.10 mph46%29.86 "Hg10 mi
11:00 PM
Apr 19
95 °FClear.12 mph36%29.86 "Hg10 mi
10:00 PM95 °FClear.12 mph36%29.83 "Hg10 mi
9:00 PM95 °FClear.7 mph30%29.83 "Hg10 mi
8:00 PM95 °FPassing clouds.5 mph32%29.80 "HgN/A
7:00 PM97 °FClear.2 mph27%29.80 "Hg10 mi
6:00 PM102 °FSunny.No wind24%29.77 "Hg10 mi
5:00 PM104 °FPartly sunny.3 mph21%29.77 "HgN/A
4:00 PM104 °FPartly sunny.2 mph20%29.77 "HgN/A
3:00 PM104 °FPartly sunny.6 mph21%29.77 "HgN/A
2:00 PM104 °FPartly sunny.6 mph23%29.80 "HgN/A
1:00 PM102 °FPartly sunny.9 mph26%29.83 "HgN/A
12:00 PM99 °FPassing clouds.9 mph33%29.86 "HgN/A
11:00 AM97 °FPassing clouds.10 mph34%29.89 "HgN/A
10:00 AM93 °FPassing clouds.12 mph39%29.92 "HgN/A
Weather by CustomWeather, © 2014

See weather overview